Location: Rounton
(54.4000°N, 1.3500°W)
Time: 21:10:55
(UTC+01:00)

YAOGAN 20A - Pass Details

Date: 01 July 2022
Orbit: 891 x 1288 km, 63.4° (Epoch: 18 August)

Event Time Altitude Azimuth Distance (km) Brightness Sun altitude
Rises 02:37:17 0° 311° (NW) 3,861 8.3 -10.2°
Reaches altitude 10° 02:40:01 10° 304° (NW) 2,962 7.6 -10.1°
Maximum altitude 02:46:26 38° 239° (WSW) 1,702 5.8 -9.7°
Drops below altitude 10° 02:53:22 10° 175° (S) 3,193 7.1 -9.3°
Enters shadow 02:55:23 - 170° (S) 3,846 7.5 -9.2°
